Showing default

IHI-SAT2, 66772

Orbit data source: Space-Track

IHI-SAT2, 66772 is a payload satellite owned by IHI Corp (JP) in SSO that was launched on Fri, 28 Nov 2025 UTC via an FALCON 9 launch vehicle from the Air Force Western Test Range (AFWTR). Payload-class satellites include a variety of spacecraft equipped with specific instruments for various scientific and technological missions. These include communications satellites like Starlink; space stations such as the ISS; scientific satellites like the Hubble; Earth observation satellites from companies like Planet Labs, Umbra, and HawkEye 360; GPS; miniature CubeSats for education and research; and military/defense satellites.

Loading next visibility...
Identifier
66772, 2025-276DL
Orbit
SSO
Country
Flag of JPJP / JPN
Related business
Manufacturer
NanoAvionics
Mission
Operational Commercial Communications
Bus & Motor
CUBESAT 6U, Unknown motor
Mass
12 kg wet, 12 kg dry
Launch date (UTC)
2025-11-28 (6 months ago)
Launch vehicle
FALCON 9
Launch site
Air Force Western Test Range (AFWTR)
Object type
Payload
Rocket body
Debris
Shape & HBR
Box, 0.1 m
Radar Cross Section
0.055 m²

Expand to show TLE details & history
Last TLE update: 1 day ago

TLE from 1 day ago
0 IHI-SAT2
1 66772U 25276DL  26144.14017359  .00005349  00000-0  24370-3 0  9997
2 66772  97.4237 218.5287 0000475  51.2526 308.8752 15.21088909 26792
Epoch: 2026-05-24T03:21Z
TLE epoch observation values (Epoch: 2026-05-24T03:21:50.998Z)
Latitude
-0.00001°
Longitude
-73.68038°
Altitude
505.441 km
Speed
7.612 km/s
True Right ascension
14h 34m 06s
True Declination
0° 00' 00"
Sunlit
Object was in full shadow at epoch
Visualization orbit readout
Latitude
Unknown
Longitude
Unknown
Altitude
Unknown
Speed
Unknown
Apparent Right ascension
Unknown
Apparent Declination
Unknown
Sunlit
N/A
Visualization observer readout
Local Sidereal Time
13:38:41
Azimuth
Unknown
Elevation
Unknown
Doppler factor
Unknown
Orbital elements
Apogee altitude
499.847 km
Perigee altitude
499.193 km
Semi-major axis
6,877.657 km
Eccentricity
0.00005
Inclination
97.4237°
RAAN
218.5287°
Arg. of periapsis
51.2526°
True anomaly
308.87096°
Mean anomaly
308.8752°
Eccentric anomaly
308.87308°
Mean motion
3.80524 °/min
Orbital period
94.61 mins
BSTAR
0.0002437
Loading maneuver chart data...
Computing Atmospheric mass density...
Loading historical data...
Loading historical data...
Loading historical data...
Loading historical data...
Loading historical data...
Loading historical data...
Loading historical data...

Documentation

Showing up to 5 results
|